[[{"header":{"parameterUnit":"m.s-1","parameterCategory":1,"la1":30.2991,"la2":30.254,"lo1":-89.0895,"lo2":-89.0444,"dy":0.0017,"dx":0.0017,"nx":28,"ny":28,"refTime":"2024-09-28T03:00:00:Z","depth":0,"parameterNumber":2,"parameterNumberName":"U-component_of_WINDS"},"data":[0,0,0,0,0,0,0,0,0,0,0,0,0,0,0,0,0,0,0,0,0,0,0,0,0,0,0,0,0,0,0,0,0,0,0,0,0,0,0,0,0,0,0,0,0,0,0,0,0,0,0,0,0,0,0,0,0,0,2.8199,2.82,0,2.8285,2.8286,2.8287,2.8298,2.8297,2.8297,2.8296,2.8387,2.839,2.8394,0,0,0,0,0,0,0,0,0,0,0,0,0,2.8048,2.8051,2.8199,2.82,2.8201,2.8285,2.8286,2.8287,2.8298,2.8297,2.8296,2.8295,2.8386,2.839,2.8394,0,0,0,0,0,0,0,0,0,0,0,0,0,2.8122,2.8052,2.8199,2.8217,2.8219,2.8285,2.8286,2.8288,2.8299,2.8297,2.8296,2.8295,2.8385,2.839,2.8394,2.8449,0,0,2.8409,2.8411,0,0,0,0,0,0,0,0,2.8118,2.8128,2.8213,2.8216,2.8218,2.828,2.8267,2.8342,2.8299,2.8269,2.8296,2.8294,2.8353,2.836,2.8379,2.8454,2.8458,2.841,2.8413,2.8415,2.8416,0,0,0,0,0,0,0,2.8113,2.8124,2.8233,2.8214,2.8218,2.8222,2.8231,2.8281,2.8317,2.8271,2.8272,2.8282,2.8354,2.8374,2.8381,2.8459,2.8409,2.8414,2.8417,2.8419,2.8584,2.8586,0,0,0,0,0,0,2.8104,2.812,2.8231,2.8236,2.8164,2.8226,2.8236,2.8261,2.8316,2.8323,2.8283,2.8282,2.8367,2.8376,2.8385,2.8453,2.8415,2.8419,2.8422,2.8583,2.8585,2.8586,0,0,0,0,0,0,2.8101,2.8114,2.8227,2.8178,2.8193,2.8229,2.8258,2.8264,2.8284,2.8325,2.8332,2.8297,2.8366,2.8378,2.8433,2.8456,2.8421,2.8426,2.8581,2.8583,2.8586,2.8589,0,0,0,0,0,0,2.8096,2.8112,2.8132,2.8178,2.8195,2.8273,2.826,2.8266,2.8292,2.8292,2.834,2.8347,2.8366,2.8426,2.8438,2.8462,2.8429,2.8579,2.8582,2.8585,2.8587,2.8591,2.8595,0,0,0,0,0,2.8091,2.8131,2.8133,2.8147,2.8221,2.8274,2.8284,2.8304,2.8294,2.8315,2.8342,2.8345,2.8452,2.8432,2.8445,2.8471,2.8578,2.8581,2.8585,2.8586,2.8591,2.8595,0,0,0,0,0,0,2.8087,2.8137,2.814,2.8196,2.8231,2.8276,2.8303,2.8309,2.8348,2.8346,2.8371,2.8382,2.8436,2.846,2.8436,2.8528,2.8514,2.852,2.851,2.8515,2.8519,2.8512,2.8433,0,0,0,0,0,2.8093,2.813,2.8172,2.8217,2.8235,2.8266,2.829,2.8302,2.834,2.8355,2.8385,2.8422,2.8464,2.8491,2.8532,2.8591,2.8602,2.8616,2.862,2.8623,2.8628,2.8662,2.8668,2.8597,2.8597,2.8597,0,0,2.8104,2.8136,2.8159,2.8217,2.8246,2.8285,2.8278,2.832,2.835,2.8361,2.8415,2.8439,2.8483,2.854,2.8567,2.8561,2.865,2.8627,2.8629,2.8633,2.8666,2.8672,2.8678,2.86,2.8599,2.8599,0,0,2.8146,2.8174,2.8215,2.8243,2.8286,2.8307,2.8317,2.8362,2.8378,2.8432,2.8441,2.8479,2.855,2.8581,2.8606,2.8661,2.8666,2.8674,2.8693,2.8726,2.8732,2.8737,2.8757,2.8763,2.8679,2.8679,2.8679,0,2.8156,2.8214,2.8235,2.8277,2.8303,2.8315,2.8357,2.8384,2.8439,2.8457,2.845,2.854,2.8571,2.8636,2.8649,2.8669,2.8682,2.8668,2.8729,2.8734,2.8739,2.8759,2.8766,2.868,2.8679,2.8679,2.8679,0,2.8224,2.8265,2.8293,2.8344,2.8374,2.8416,2.8444,2.8472,2.8483,2.8505,2.8561,2.8598,2.8647,2.8664,2.8675,2.8731,2.8726,2.8724,2.871,2.8746,2.8765,2.8772,2.868,2.868,2.868,2.868,0,0,2.8264,2.8327,2.8337,2.8361,2.841,2.8443,2.8486,2.8533,2.8556,2.8594,2.8632,2.8693,2.8691,2.872,2.8735,2.8764,2.8806,2.8758,2.876,2.8766,2.887,2.8871,2.8879,2.881,2.8812,2.8813,2.8867,0,2.8311,2.8386,2.8407,2.8472,2.8511,2.8524,2.8562,2.8597,2.8619,2.8657,2.8682,2.8725,2.872,2.8737,2.8766,2.8794,2.8827,2.8791,2.8846,2.8848,2.8833,2.8888,2.8889,2.8938,2.8874,2.8875,2.8876,0,2.8375,2.8413,2.8481,2.8526,2.8544,2.8577,2.8622,2.8658,2.8698,2.8713,2.8745,2.8758,2.8806,2.8791,2.8857,2.8832,2.8856,2.8874,2.8876,2.8881,2.8863,2.8894,2.8954,2.8961,2.8888,2.8887,2.8886,0,2.8396,2.8466,2.8515,2.8536,2.8589,2.8613,2.8637,2.8676,2.8703,2.8744,2.8762,2.8808,2.8833,2.8869,2.8894,2.8881,2.8959,2.8946,2.8973,2.8972,2.8987,2.8985,2.905,2.9004,2.9004,2.9004,2.9004,0,2.8446,2.8487,2.8526,2.8556,2.8604,2.8629,2.8675,2.87,2.8735,2.8772,2.8787,2.8821,2.8854,2.8893,2.8914,2.8966,2.8977,2.8991,2.8996,2.8989,2.8987,2.9004,2.9001,2.9006,2.9006,2.9005,2.9005,0,2.8477,2.8505,2.856,2.8607,2.862,2.8652,2.8693,2.8724,2.8748,2.8794,2.8807,2.8844,2.8891,2.8921,2.8981,2.8995,2.9052,2.9056,2.9038,2.904,2.9065,2.9062,2.9142,2.9154,2.91,2.9101,2.9101,0,2.8506,2.8538,2.8588,2.8613,2.8637,2.8678,2.8706,2.8732,2.8761,2.8811,2.8836,2.8884,2.8924,2.8999,2.9032,2.9079,2.9084,2.9109,2.9091,2.9083,2.9084,2.9081,2.9084,2.9111,2.9112,2.9112,2.9112,0,2.8555,2.8567,2.8606,2.865,2.8683,2.8719,2.8756,2.8776,2.8809,2.8841,2.8889,2.892,2.8981,2.9029,2.9079,2.9105,2.9115,2.9118,2.9127,2.9119,2.9107,2.9114,2.9045,2.9116,2.9115,2.9115,2.9115,2.9115,2.8585,2.8614,2.8654,2.8698,2.8728,2.8762,2.8794,2.8822,2.8862,2.8913,2.8927,2.8977,2.9019,2.9087,2.9114,2.9155,2.9152,2.9164,2.9167,2.917,2.917,2.9101,2.9164,2.9164,2.9164,2.9164,2.9164,0,2.8634,2.8661,2.87,2.8751,2.8785,2.8791,2.8832,2.8861,2.8905,2.8943,2.8981,2.9037,2.9084,2.9122,2.917,2.9196,2.9201,2.9208,2.9205,2.9211,2.917,2.9157,2.9202,2.9202,2.9202,2.9202,2.9202,2.9202,2.8663,2.8713,2.8731,2.8796,2.8823,2.8872,2.8895,2.8927,2.8957,2.9018,2.9057,2.9081,2.912,2.9171,2.9215,2.9225,2.9242,2.9247,2.9258,2.9218,2.9214,2.921,2.9198,2.9251,2.9251,2.9296,2.9296,2.9297]},{"header":{"parameterUnit":"m.s-1","parameterCategory":1,"la1":30.2991,"la2":30.254,"lo1":-89.0895,"lo2":-89.0444,"dy":0.0017,"dx":0.0017,"nx":28,"ny":28,"refTime":"2024-09-28T03:00:00:Z","depth":0,"parameterNumber":3,"parameterNumberName":"V-component_of_WINDS"},"data":[0,0,0,0,0,0,0,0,0,0,0,0,0,0,0,0,0,0,0,0,0,0,0,0,0,0,0,0,0,0,0,0,0,0,0,0,0,0,0,0,0,0,0,0,0,0,0,0,0,0,0,0,0,0,0,0,0,0,2.6481,2.6481,0,2.6529,2.653,2.653,2.6543,2.6542,2.6542,2.6542,2.6587,2.6588,2.659,0,0,0,0,0,0,0,0,0,0,0,0,0,2.6394,2.6395,2.6481,2.6481,2.6482,2.6529,2.653,2.6531,2.6543,2.6542,2.6542,2.6542,2.6586,2.6588,2.659,0,0,0,0,0,0,0,0,0,0,0,0,0,2.6436,2.6396,2.6481,2.6494,2.6496,2.6529,2.653,2.6531,2.6543,2.6542,2.6542,2.6541,2.6586,2.6588,2.659,2.6613,0,0,2.6597,2.6598,0,0,0,0,0,0,0,0,2.6433,2.6439,2.6491,2.6493,2.6495,2.653,2.6516,2.6558,2.6543,2.6525,2.6542,2.6541,2.6568,2.6571,2.6581,2.6615,2.6617,2.6597,2.6598,2.6599,2.66,0,0,0,0,0,0,0,2.643,2.6437,2.65,2.6492,2.6494,2.6496,2.6501,2.6524,2.6548,2.6526,2.6527,2.6533,2.6569,2.6579,2.6583,2.6617,2.6597,2.6599,2.66,2.6601,2.667,2.667,0,0,0,0,0,0,2.6426,2.6434,2.6498,2.6501,2.6462,2.6498,2.6504,2.6519,2.6548,2.6552,2.6533,2.6533,2.6576,2.658,2.6584,2.6612,2.6599,2.6601,2.6603,2.6669,2.667,2.667,0,0,0,0,0,0,2.6424,2.6431,2.6496,2.6468,2.6476,2.65,2.6516,2.652,2.6531,2.6553,2.6557,2.654,2.6576,2.6581,2.6605,2.6613,2.6602,2.6604,2.6669,2.667,2.667,2.6667,0,0,0,0,0,0,2.6421,2.6431,2.6441,2.6468,2.6478,2.6518,2.6517,2.6521,2.6535,2.6535,2.6561,2.6564,2.6576,2.6602,2.6608,2.6616,2.6606,2.6668,2.6669,2.667,2.6666,2.6667,2.6668,0,0,0,0,0,2.6418,2.6437,2.6441,2.6449,2.6491,2.6519,2.6524,2.6538,2.6536,2.6545,2.6559,2.6563,2.6612,2.6604,2.6611,2.662,2.6668,2.6669,2.667,2.6666,2.6667,2.6668,0,0,0,0,0,0,2.6409,2.6441,2.6446,2.6475,2.6494,2.6521,2.6533,2.6539,2.6559,2.6558,2.6573,2.6579,2.6602,2.6613,2.6605,2.6643,2.6639,2.6642,2.6634,2.6636,2.6637,2.6633,2.6608,0,0,0,0,0,2.641,2.6431,2.6458,2.6481,2.649,2.651,2.6523,2.6532,2.6552,2.6559,2.6576,2.6594,2.6613,2.6625,2.6644,2.6668,2.6673,2.6678,2.6678,2.6679,2.6681,2.6693,2.6695,2.6674,2.6674,2.6674,0,0,2.6413,2.6433,2.6446,2.6479,2.6495,2.6515,2.6517,2.6538,2.6552,2.6562,2.6587,2.6599,2.662,2.6644,2.6655,2.6654,2.6688,2.6681,2.6681,2.6682,2.6695,2.6697,2.6698,2.6675,2.6675,2.6675,0,0,2.6428,2.6446,2.6467,2.6483,2.6508,2.6521,2.6526,2.6552,2.656,2.6585,2.6593,2.6609,2.6642,2.6656,2.6668,2.6687,2.6691,2.6693,2.6698,2.671,2.6711,2.6713,2.6719,2.6721,2.6695,2.6695,2.6695,0,2.6428,2.646,2.6476,2.6497,2.6511,2.6522,2.6542,2.6556,2.6585,2.6594,2.6592,2.6633,2.6648,2.6675,2.668,2.6689,2.6694,2.669,2.671,2.6712,2.6713,2.6719,2.6721,2.6695,2.6695,2.6695,2.6695,0,2.6458,2.648,2.6493,2.6523,2.6538,2.6558,2.6575,2.6589,2.6596,2.6608,2.6632,2.6651,2.6673,2.668,2.6687,2.6708,2.6706,2.6707,2.6704,2.6715,2.6721,2.6723,2.6695,2.6695,2.6695,2.6695,0,0,2.6469,2.6507,2.6511,2.6524,2.6552,2.6568,2.6588,2.6611,2.6621,2.664,2.6656,2.6683,2.6685,2.6697,2.6706,2.6717,2.6729,2.6716,2.6717,2.6717,2.6752,2.675,2.6753,2.6733,2.6733,2.6733,2.675,0,2.6487,2.6525,2.6539,2.6569,2.6589,2.6599,2.6616,2.6634,2.6645,2.6662,2.6675,2.6693,2.6694,2.6702,2.6713,2.6726,2.6736,2.6725,2.6746,2.6746,2.674,2.6756,2.6755,2.6769,2.6752,2.6752,2.6753,0,2.6513,2.6534,2.6566,2.6591,2.6599,2.6615,2.6636,2.6653,2.6672,2.668,2.6694,2.6702,2.6721,2.6718,2.6743,2.6735,2.6744,2.6752,2.6753,2.6755,2.675,2.6757,2.6774,2.6776,2.6757,2.6756,2.6756,0,2.6517,2.6552,2.6576,2.6587,2.6616,2.6626,2.6639,2.6658,2.6671,2.6689,2.6697,2.6717,2.6727,2.6742,2.6754,2.675,2.6778,2.6775,2.6784,2.6783,2.6789,2.6788,2.6807,2.6796,2.6796,2.6796,2.6796,0,2.6535,2.6554,2.6578,2.6592,2.6613,2.6629,2.6649,2.6662,2.6679,2.6694,2.6704,2.6718,2.6734,2.6749,2.6759,2.6778,2.6783,2.6788,2.6791,2.6787,2.6787,2.6793,2.6792,2.6796,2.6796,2.6796,2.6796,0,2.6542,2.6559,2.6585,2.6611,2.6618,2.6632,2.6654,2.6667,2.6679,2.6699,2.6704,2.6723,2.6742,2.6756,2.678,2.6786,2.6806,2.6809,2.68,2.6801,2.6808,2.6807,2.6831,2.6834,2.6822,2.6822,2.6822,0,2.6552,2.6567,2.6595,2.6607,2.6619,2.6639,2.6652,2.6667,2.668,2.6703,2.6713,2.6733,2.675,2.6779,2.6794,2.6812,2.6814,2.6821,2.6817,2.6813,2.6813,2.6812,2.6813,2.6822,2.6822,2.6822,2.6822,0,2.6568,2.6576,2.6595,2.6617,2.6633,2.6651,2.6668,2.6677,2.6695,2.6709,2.6729,2.6742,2.6767,2.6786,2.6806,2.6816,2.6822,2.6823,2.6826,2.6823,2.6817,2.6819,2.6801,2.6823,2.6823,2.6823,2.6823,2.6823,2.6576,2.659,2.6611,2.6632,2.6647,2.6664,2.6677,2.6692,2.6709,2.6732,2.6739,2.676,2.6778,2.6805,2.6815,2.6831,2.683,2.6834,2.6835,2.6836,2.6835,2.6815,2.6834,2.6834,2.6834,2.6834,2.6834,0,2.6592,2.6606,2.6625,2.6651,2.6666,2.6672,2.6691,2.6704,2.6722,2.6739,2.6756,2.6778,2.6796,2.6812,2.6831,2.684,2.6843,2.6844,2.6843,2.6845,2.6835,2.683,2.6841,2.6841,2.6841,2.6841,2.6841,2.6841,2.6602,2.6625,2.6635,2.6664,2.6678,2.67,2.671,2.6725,2.6738,2.6763,2.6779,2.679,2.6806,2.6826,2.6842,2.6846,2.6852,2.6853,2.6857,2.6847,2.6846,2.6845,2.6841,2.6854,2.6854,2.6867,2.6867,2.6867]}]]